Kenosha, WI

5:31 PM CST on February 22, 2018 (GMT -0600)
Kenosha Regional

Weather History for KENW - March, 2014

Change the Weather History Date:

Saturday, March 1, 2014

  Actual Average Record
Temperature  
Mean Temperature 17 °F -  
Max Temperature 24 °F 39 °F 65 °F (1992)
Min Temperature 9 °F 23 °F -9 °F (1962)
Degree Days  
Heating Degree Days 48    
Moisture  
Dew Point 10 °F    
Average Humidity 77    
Maximum Humidity 89    
Minimum Humidity 54    
Precipitation  
Precipitation 0.11 in - - ()
Sea Level Pressure  
Sea Level Pressure 30.21 in    
Wind  
Wind Speed 8 mph (NNW)    
Max Wind Speed 13 mph    
Max Gust Speed -    
Visibility 4 miles    
Events Snow    
Averages and records for this station are not official NWS values.
T = Trace of Precipitation, MM = Missing Value Source: NWS Daily Summary

Daily Weather History Graph

Daily Weather History Graph

Search for Another Location

Airport or City:

Trip Planner

Search our weather history database for the weather conditions in past years. The results will help you decide how hot, cold, wet, or windy it might be!

Date:

Astronomy

Mar. 01, 2014 Rise Set
Actual Time 6:27 AM CST 5:41 PM CST
Civil Twilight 5:59 AM CST 6:09 PM CST
Nautical Twilight 5:26 AM CST 6:42 PM CST
Astronomical Twilight 4:53 AM CST 7:15 PM CST
Moon 6:19 AM CST (3/1) 6:30 PM CST (3/1)
Length of Visible Light 12h 10m
Length of Day
11h 14m
New Moon, 0% of the Moon is Illuminated
Mar 1
New Moon
Mar 8
First Quarter
Mar 16
Full
Mar 23
Last Quarter
Mar 30
New

Hourly Weather History & Observations

Time (CST) Temp. Windchill Dew Point Humidity Pressure Visibility Wind Dir Wind Speed Gust Speed Precip Events Conditions
12:53 AM 24.1 °F 19.7 °F 19.9 °F 84% 30.05 in 2.0 mi NW 3.5 mph - 0.00 in Snow Light Snow
1:02 AM 24.1 °F - 19.9 °F 84% 30.01 in 1.5 mi Calm Calm - 0.00 in Snow Light Snow
1:10 AM 24.1 °F 19.7 °F 19.9 °F 84% 30.02 in 1.5 mi NW 3.5 mph - 0.00 in Snow Light Snow
1:53 AM 23.0 °F 15.8 °F 19.9 °F 88% 30.05 in 1.0 mi NW 5.8 mph - 0.02 in Snow Light Snow
2:53 AM 23.0 °F 13.9 °F 19.9 °F 88% 30.05 in 1.5 mi NNW 8.1 mph - 0.01 in Snow Light Snow
3:11 AM 23.0 °F 13.1 °F 19.0 °F 85% 30.02 in 2.5 mi NNW 9.2 mph - 0.00 in Snow Light Snow
3:21 AM 23.0 °F 13.1 °F 19.0 °F 85% 30.02 in 3.0 mi NNW 9.2 mph - 0.00 in Snow Light Snow
3:41 AM 21.9 °F 11.0 °F 19.0 °F 89% 30.03 in 4.0 mi North 10.4 mph - 0.00 in Snow Light Snow
3:48 AM 21.2 °F 10.1 °F 17.6 °F 86% 30.04 in 1.8 mi North 10.4 mph - 0.00 in Snow Light Snow
3:53 AM 21.0 °F 8.6 °F 17.1 °F 85% 30.08 in 1.5 mi NNW 12.7 mph - 0.01 in Snow Light Snow
4:03 AM 21.0 °F 10.6 °F 17.1 °F 85% 30.04 in 3.0 mi NNW 9.2 mph - 0.00 in Snow Light Snow
4:13 AM 21.0 °F 9.9 °F 16.0 °F 81% 30.06 in 4.0 mi NNW 10.4 mph - 0.00 in Snow Light Snow
4:25 AM 21.0 °F 8.6 °F 16.0 °F 81% 30.06 in 4.0 mi North 12.7 mph - 0.00 in Snow Light Snow
4:42 AM 21.0 °F 10.6 °F 16.0 °F 81% 30.07 in 8.0 mi NNW 9.2 mph - 0.00 in   Overcast
4:53 AM 19.9 °F 8.6 °F 15.1 °F 81% 30.10 in 8.0 mi NNW 10.4 mph - 0.00 in   Overcast
5:12 AM 19.9 °F 8.6 °F 14.0 °F 78% 30.08 in 10.0 mi NNW 10.4 mph - N/A   Overcast
5:53 AM 19.9 °F 7.9 °F 12.9 °F 74% 30.13 in 10.0 mi NNW 11.5 mph - N/A   Overcast
6:53 AM 18.0 °F 5.4 °F 9.0 °F 68% 30.17 in 10.0 mi NNW 11.5 mph - N/A   Overcast
7:53 AM 16.0 °F 2.3 °F 7.0 °F 68% 30.22 in 10.0 mi North 12.7 mph - N/A   Overcast
8:53 AM 17.1 °F 5.0 °F 6.1 °F 62% 30.24 in 10.0 mi NNW 10.4 mph - N/A   Overcast
9:53 AM 17.1 °F 4.3 °F 3.9 °F 56% 30.25 in 10.0 mi North 11.5 mph - N/A   Overcast
10:53 AM 18.0 °F 7.7 °F 3.9 °F 54% 30.27 in 10.0 mi NNW 8.1 mph - N/A   Overcast
11:53 AM 17.1 °F 6.6 °F 3.9 °F 56% 30.27 in 10.0 mi NNW 8.1 mph - N/A   Overcast
12:53 PM 17.1 °F 5.8 °F 3.9 °F 56% 30.28 in 5.0 mi NNW 9.2 mph - 0.00 in Snow Light Snow
1:07 PM 17.1 °F 7.6 °F 5.0 °F 59% 30.22 in 2.5 mi NNW 6.9 mph - 0.00 in Snow Light Snow
1:24 PM 16.0 °F 5.3 °F 8.1 °F 71% 30.22 in 1.2 mi NNW 8.1 mph - 0.00 in Snow Light Snow
1:53 PM 16.0 °F 5.3 °F 9.0 °F 74% 30.28 in 1.2 mi NW 8.1 mph - 0.00 in Snow Light Snow
2:23 PM 15.1 °F 3.3 °F 9.0 °F 77% 30.25 in 0.8 mi NW 9.2 mph - 0.01 in Snow Light Snow
2:53 PM 14.0 °F 0.5 °F 9.0 °F 80% 30.30 in 0.8 mi NW 11.5 mph - 0.01 in Snow Light Snow
3:53 PM 12.9 °F -0.9 °F 7.0 °F 77% 30.32 in 2.0 mi NNW 11.5 mph - 0.01 in Snow Light Snow
3:57 PM 12.9 °F -0.2 °F 8.1 °F 81% 30.28 in 1.0 mi NNW 10.4 mph - 0.00 in Snow Light Snow
4:12 PM 12.9 °F -0.9 °F 7.0 °F 77% 30.27 in 1.0 mi NNW 11.5 mph - 0.00 in Snow Light Snow
4:23 PM 12.9 °F 0.7 °F 8.1 °F 81% 30.27 in 1.0 mi North 9.2 mph - 0.00 in Snow Light Snow
4:53 PM 12.0 °F 1.5 °F 7.0 °F 80% 30.32 in 1.5 mi North 6.9 mph - 0.00 in Snow Light Snow
5:28 PM 10.9 °F -2.6 °F 7.0 °F 84% 30.29 in 2.5 mi NNW 10.4 mph - 0.01 in Snow Light Snow
5:53 PM 10.9 °F -1.8 °F 6.1 °F 81% 30.34 in 2.5 mi North 9.2 mph - 0.01 in Snow Light Snow
6:01 PM 10.9 °F 0.2 °F 6.1 °F 81% 30.29 in 3.0 mi North 6.9 mph - 0.00 in Snow Light Snow
6:11 PM 10.9 °F 0.2 °F 6.1 °F 81% 30.29 in 2.0 mi North 6.9 mph - 0.00 in Snow Light Snow
6:36 PM 10.9 °F 0.2 °F 6.1 °F 81% 30.30 in 1.2 mi NNW 6.9 mph - 0.00 in Snow Light Snow
6:53 PM 10.9 °F -0.8 °F 6.1 °F 81% 30.36 in 1.2 mi North 8.1 mph - 0.01 in Snow Light Snow
7:53 PM 10.9 °F 1.4 °F 6.1 °F 81% 30.35 in 0.8 mi North 5.8 mph - 0.02 in Snow Light Snow
8:01 PM 10.9 °F 1.4 °F 6.1 °F 81% 30.31 in 1.0 mi NNW 5.8 mph - 0.00 in Snow Light Snow
8:14 PM 10.9 °F 0.2 °F 6.1 °F 81% 30.31 in 1.5 mi NNW 6.9 mph - 0.01 in Snow Light Snow
8:39 PM 10.0 °F -1.9 °F 5.0 °F 80% 30.32 in 3.0 mi NW 8.1 mph - 0.01 in Snow Light Snow
8:51 PM 10.4 °F -1.5 °F 5.0 °F 79% 30.33 in 6.0 mi NNW 8.1 mph - 0.01 in Snow Light Snow
8:53 PM 10.0 °F -1.9 °F 5.0 °F 80% 30.38 in 7.0 mi NNW 8.1 mph - 0.01 in   Overcast
9:53 PM 10.0 °F -1.9 °F 3.9 °F 76% 30.39 in 10.0 mi NNW 8.1 mph - N/A   Overcast
10:53 PM 10.0 °F -2.9 °F 1.9 °F 70% 30.37 in 10.0 mi NNW 9.2 mph - N/A   Overcast
11:53 PM 9.0 °F -6.6 °F 1.9 °F 73% 30.38 in 2.0 mi NNW 12.7 mph - 0.00 in Snow Light Snow